Location: Albany
(35.0170°S, 117.8920°E)
Time: 01:26:54
(UTC+08:00)

Explorer 7 - Pass Details

Date: 27 January 2021
Orbit: 484 x 677 km, 50.3° (Epoch: 01 March)

Event Time Altitude Azimuth Distance (km) Brightness Sun altitude
Rises 21:44:42 0° 229° (SW) 2,903 11.9 -25.0°
Reaches altitude 10° 21:47:06 10° 227° (SW) 1,960 10.7 -25.3°
Enters shadow 21:50:57 62° 205° (SSW) 656 7.3 -25.8°
Maximum altitude 21:51:35 77° 141° (SE) 595 - -25.9°
Drops below altitude 10° 21:55:44 10° 54° (NE) 1,817 - -26.5°
Sets 21:57:53 0° 52° (NE) 2,673 - -26.7°
